User: anonymous   Login
Location: Slanting_Bridge
(35.6330°N, 80.9830°W)
Time: 03:08:59
(UTC-04:00)
Language:

Hamsat - Orbit

View from above orbital plane
View from above orbital plane
View from above satellite
View from above satellite

Ground track
Ground track

The orbit data is extracted from the following two-line orbital elements,

1 28650U 05017B   15116.48495364  .00002568  00000-0  28968-3 0  9998
2 28650 097.5733 111.3029 0023680 198.9274 161.1065 14.87214598539762
Epoch (UTC): 26 April 2015 11:38:19
Eccentricity: 0.0023680
inclination: 97.5733°
perigee height: 590 km
apogee height: 623 km
right ascension of ascending node: 111.3029°
argument of perigee: 198.9274°
revolutions per day: 14.87214598
mean anomaly at epoch: 161.1065°
orbit number at epoch: 53976

The dashed part of the orbit path shows where the satellite is in the earth's shadow,  

DLR